Time,TemperatureF,DewpointF,PressureIn,WindDirection,WindDirectionDegrees,WindSpeedMPH,WindSpeedGustMPH,Humidity,HourlyPrecipIn,Conditions,Clouds,dailyrainin,SoftwareType,DateUTC
2013-02-07 00:00:00,34.4,30.6,30.08,South,173,1.0,7.0,86,0.00, +TSGR FG,SKC,-99.99,VWS V12.07,2013-02-07 06:00:00,
2013-02-07 00:05:00,34.4,30.6,30.07,SSE,148,7.0,8.0,86,0.00, +TSGR FG,SKC,-99.99,VWS V12.07,2013-02-07 06:05:00,
2013-02-07 00:10:00,34.4,30.6,30.08,South,174,4.0,8.0,86,0.00, +TSGR FG,SKC,-99.99,VWS V12.07,2013-02-07 06:10:00,
2013-02-07 00:15:00,34.3,30.6,30.08,South,179,4.0,7.0,86,0.00, +TSGR FG,SKC,-99.99,VWS V12.07,2013-02-07 06:15:00,
2013-02-07 00:20:00,34.3,30.6,30.08,South,178,4.0,7.0,86,0.00, +TSGR FG,SKC,-99.99,VWS V12.07,2013-02-07 06:20:00,
2013-02-07 00:25:00,34.2,30.5,30.07,SSE,167,2.0,2.0,86,0.00, +TSGR FG,SKC,-99.99,VWS V12.07,2013-02-07 06:25:00,
2013-02-07 00:30:00,34.2,30.5,30.07,SSE,163,4.0,6.0,86,0.00, +TSGR FG,SKC,-99.99,VWS V12.07,2013-02-07 06:30:00,
2013-02-07 00:35:00,34.2,30.5,30.07,South,169,4.0,7.0,86,0.00, +TSGR FG,SKC,-99.99,VWS V12.07,2013-02-07 06:35:00,
2013-02-07 00:40:00,34.2,30.5,30.07,South,169,4.0,7.0,86,0.00, +TSGR FG,SKC,-99.99,VWS V12.07,2013-02-07 06:40:00,
2013-02-07 00:45:00,34.1,30.4,30.06,SE,140,5.0,6.0,86,0.00, +TSGR FG,SKC,-99.99,VWS V12.07,2013-02-07 06:45:00,
2013-02-07 00:50:00,34.1,30.6,30.06,SSE,152,4.0,7.0,87,0.00, +TSGR FG,SKC,-99.99,VWS V12.07,2013-02-07 06:50:00,
2013-02-07 00:55:00,34.1,30.6,30.06,SSW,192,4.0,9.0,87,0.00, +TSGR FG,SKC,-99.99,VWS V12.07,2013-02-07 06:55:00,
2013-02-07 01:00:00,34.1,30.4,30.06,SE,139,4.0,9.0,86,0.00, +TSGR FG,SKC,-99.99,VWS V12.07,2013-02-07 07:00:00,
2013-02-07 01:05:00,34.1,30.4,30.06,SE,136,6.0,6.0,86,0.00, +TSGR FG,SKC,-99.99,VWS V12.07,2013-02-07 07:05:00,
2013-02-07 01:10:00,34.1,30.4,30.07,SSE,150,2.0,6.0,86,0.00, +TSGR FG,SKC,-99.99,VWS V12.07,2013-02-07 07:10:00,
2013-02-07 01:15:00,34.1,30.4,30.07,SSE,150,0.0,4.0,86,0.00, +TSGR FG,SKC,-99.99,VWS V12.07,2013-02-07 07:15:00,
2013-02-07 01:20:00,34.0,30.3,30.07,SSE,150,0.0,4.0,86,0.00, +TSGR FG,SKC,-99.99,VWS V12.07,2013-02-07 07:20:00,
2013-02-07 01:25:00,33.9,30.5,30.06,SSE,150,1.0,5.0,87,0.00, +TSGR FG,SKC,-99.99,VWS V12.07,2013-02-07 07:25:00,
2013-02-07 01:30:00,33.8,30.1,30.06,SSE,150,4.0,5.0,86,0.00, +TSGR FG,SKC,-99.99,VWS V12.07,2013-02-07 07:30:00,
2013-02-07 01:40:00,33.8,30.4,30.06,SSE,147,2.0,6.0,87,0.00, +TSGR FG,SKC,-99.99,VWS V12.07,2013-02-07 07:40:00,
2013-02-07 01:45:00,33.8,30.4,30.06,SE,136,6.0,6.0,87,0.00, +TSGR FG,SKC,-99.99,VWS V12.07,2013-02-07 07:45:00,
2013-02-07 01:55:00,33.7,30.2,30.05,SSE,161,4.0,6.0,87,0.00, +TSGR FG,SKC,-99.99,VWS V12.07,2013-02-07 07:55:00,
2013-02-07 02:00:00,33.7,30.2,30.06,SE,128,2.0,6.0,87,0.00, +TSGR FG,SKC,-99.99,VWS V12.07,2013-02-07 08:00:00,
2013-02-07 02:05:00,33.6,30.1,30.06,SE,127,2.0,2.0,87,0.00, +TSGR FG,SKC,-99.99,VWS V12.07,2013-02-07 08:05:00,
2013-02-07 02:15:00,33.5,30.0,30.06,SE,140,1.0,5.0,87,0.00, +TSGR FG,SKC,-99.99,VWS V12.07,2013-02-07 08:15:00,
2013-02-07 02:20:00,33.5,30.0,30.06,SE,144,6.0,6.0,87,0.00, +TSGR FG,SKC,-99.99,VWS V12.07,2013-02-07 08:20:00,
2013-02-07 02:25:00,33.5,30.0,30.06,SE,144,5.0,5.0,87,0.00, +TSGR FG,SKC,-99.99,VWS V12.07,2013-02-07 08:25:00,
2013-02-07 02:30:00,33.5,30.0,30.06,SSE,153,1.0,5.0,87,0.00, +TSGR FG,SKC,-99.99,VWS V12.07,2013-02-07 08:30:00,
2013-02-07 02:35:00,33.4,30.0,30.05,SSE,155,4.0,5.0,87,0.00, +TSGR FG,SKC,-99.99,VWS V12.07,2013-02-07 08:35:00,
2013-02-07 02:40:00,33.4,30.0,30.05,SSE,148,4.0,6.0,87,0.00, +TSGR FG,SKC,-99.99,VWS V12.07,2013-02-07 08:40:00,
2013-02-07 02:45:00,33.4,30.0,30.05,South,173,2.0,4.0,87,0.00, +TSGR FG,SKC,-99.99,VWS V12.07,2013-02-07 08:45:00,
2013-02-07 02:50:00,33.4,30.0,30.05,SE,140,2.0,4.0,87,0.00, +TSGR FG,SKC,-99.99,VWS V12.07,2013-02-07 08:50:00,
2013-02-07 02:55:00,33.3,29.9,30.05,SE,140,1.0,4.0,87,0.00, +TSGR FG,SKC,-99.99,VWS V12.07,2013-02-07 08:55:00,
2013-02-07 03:00:00,33.2,29.8,30.04,SE,140,0.0,4.0,87,0.00, +TSGR FG,SKC,-99.99,VWS V12.07,2013-02-07 09:00:00,
2013-02-07 03:05:00,33.2,29.8,30.04,SE,140,5.0,5.0,87,0.00, +TSGR FG,SKC,-99.99,VWS V12.07,2013-02-07 09:05:00,
2013-02-07 03:15:00,33.1,29.7,30.04,SE,146,4.0,4.0,87,0.00, +TSGR FG,SKC,-99.99,VWS V12.07,2013-02-07 09:15:00,
2013-02-07 03:20:00,33.1,29.9,30.04,SE,146,2.0,5.0,88,0.00, +TSGR FG,SKC,-99.99,VWS V12.07,2013-02-07 09:20:00,
2013-02-07 03:25:00,33.1,29.9,30.03,SE,141,4.0,6.0,88,0.00, +TSGR FG,SKC,-99.99,VWS V12.07,2013-02-07 09:25:00,
2013-02-07 03:30:00,33.1,29.9,30.04,SE,135,1.0,6.0,88,0.00, +TSGR FG,SKC,-99.99,VWS V12.07,2013-02-07 09:30:00,
2013-02-07 03:35:00,33.0,29.8,30.04,SE,135,2.0,4.0,88,0.00, +TSGR FG,SKC,-99.99,VWS V12.07,2013-02-07 09:35:00,
2013-02-07 03:40:00,33.0,29.8,30.04,SE,135,0.0,4.0,88,0.00, +TSGR FG,SKC,-99.99,VWS V12.07,2013-02-07 09:40:00,
2013-02-07 03:45:00,32.9,29.7,30.04,SE,135,0.0,1.0,88,0.00, +TSGR FG,SKC,-99.99,VWS V12.07,2013-02-07 09:45:00,
2013-02-07 03:50:00,32.9,29.7,30.04,SE,135,1.0,4.0,88,0.00, +TSGR FG,SKC,-99.99,VWS V12.07,2013-02-07 09:50:00,
2013-02-07 03:55:00,32.9,29.7,30.04,SE,132,0.0,2.0,88,0.00, +TSGR FG,SKC,-99.99,VWS V12.07,2013-02-07 09:55:00,
2013-02-07 04:00:00,32.9,29.7,30.04,SE,132,0.0,4.0,88,0.00, +TSGR FG,SKC,-99.99,VWS V12.07,2013-02-07 10:00:00,
2013-02-07 04:05:00,32.9,29.7,30.04,SE,144,1.0,4.0,88,0.00, +TSGR FG,SKC,-99.99,VWS V12.07,2013-02-07 10:05:00,
2013-02-07 04:10:00,32.9,29.7,30.04,SE,136,1.0,4.0,88,0.00, +TSGR FG,SKC,-99.99,VWS V12.07,2013-02-07 10:10:00,
2013-02-07 04:15:00,32.8,29.6,30.04,SE,136,0.0,1.0,88,0.00, +TSGR FG,SKC,-99.99,VWS V12.07,2013-02-07 10:15:00,
2013-02-07 04:20:00,32.8,29.6,30.03,SE,136,1.0,2.0,88,0.00, +TSGR FG,SKC,-99.99,VWS V12.07,2013-02-07 10:20:00,
2013-02-07 04:25:00,32.7,29.8,30.03,SE,136,0.0,2.0,89,0.00, +TSGR FG,SKC,-99.99,VWS V12.07,2013-02-07 10:25:00,
2013-02-07 04:30:00,32.6,29.7,30.03,SE,136,0.0,2.0,89,0.00, +TSGR FG,SKC,-99.99,VWS V12.07,2013-02-07 10:30:00,
2013-02-07 04:40:00,32.6,29.7,30.03,SE,136,2.0,2.0,89,0.00, +TSGR FG,SKC,-99.99,VWS V12.07,2013-02-07 10:40:00,
2013-02-07 04:50:00,32.6,29.7,30.03,SE,136,0.0,2.0,89,0.00, +TSGR FG,SKC,-99.99,VWS V12.07,2013-02-07 10:50:00,
2013-02-07 05:00:00,32.5,29.6,30.03,SE,136,4.0,4.0,89,0.00, +TSGR FG,SKC,-99.99,VWS V12.07,2013-02-07 11:00:00,
2013-02-07 05:05:00,32.5,29.9,30.03,SE,130,2.0,4.0,90,0.00, +TSGR FG,SKC,-99.99,VWS V12.07,2013-02-07 11:05:00,
2013-02-07 05:10:00,32.5,29.9,30.03,ESE,110,0.0,5.0,90,0.00, +TSGR FG,SKC,-99.99,VWS V12.07,2013-02-07 11:10:00,
2013-02-07 05:20:00,32.5,29.9,30.02,SE,132,1.0,5.0,90,0.00, +TSGR FG,SKC,-99.99,VWS V12.07,2013-02-07 11:20:00,
2013-02-07 05:25:00,32.5,29.9,30.02,SE,130,2.0,6.0,90,0.00, +TSGR FG,SKC,-99.99,VWS V12.07,2013-02-07 11:25:00,
2013-02-07 05:30:00,32.5,29.9,30.02,SE,140,2.0,6.0,90,0.00, +TSGR FG,SKC,-99.99,VWS V12.07,2013-02-07 11:30:00,
2013-02-07 05:35:00,32.4,29.8,30.02,SE,140,2.0,4.0,90,0.00, +TSGR FG,SKC,-99.99,VWS V12.07,2013-02-07 11:35:00,
2013-02-07 05:45:00,32.4,29.8,30.02,SE,129,2.0,5.0,90,0.00, +TSGR FG,SKC,-99.99,VWS V12.07,2013-02-07 11:45:00,
2013-02-07 05:50:00,32.4,29.8,30.02,SSE,149,4.0,5.0,90,0.00, +TSGR FG,SKC,-99.99,VWS V12.07,2013-02-07 11:50:00,
2013-02-07 06:00:00,32.3,29.7,30.02,SSE,150,1.0,6.0,90,0.00, +TSGR FG,SKC,-99.99,VWS V12.07,2013-02-07 12:00:00,
2013-02-07 06:10:00,32.4,29.8,30.02,SSE,151,5.0,8.0,90,0.00, +TSGR FG,SKC,-99.99,VWS V12.07,2013-02-07 12:10:00,
2013-02-07 06:15:00,32.4,29.8,30.01,SSE,156,7.0,10.0,90,0.00, +TSGR FG,SKC,-99.99,VWS V12.07,2013-02-07 12:15:00,
2013-02-07 06:20:00,32.5,29.9,30.01,South,175,2.0,10.0,90,0.00, +TSGR FG,SKC,-99.99,VWS V12.07,2013-02-07 12:20:00,
2013-02-07 06:25:00,32.5,29.9,30.01,SSE,156,6.0,9.0,90,0.00, +TSGR FG,SKC,-99.99,VWS V12.07,2013-02-07 12:25:00,
2013-02-07 06:30:00,32.5,29.9,30.01,South,169,7.0,10.0,90,0.00, +TSGR FG,SKC,-99.99,VWS V12.07,2013-02-07 12:30:00,
2013-02-07 06:35:00,32.5,29.9,30.01,South,169,2.0,7.0,90,0.00, +TSGR FG,SKC,-99.99,VWS V12.07,2013-02-07 12:35:00,
2013-02-07 06:40:00,32.5,29.9,30.01,SSE,164,4.0,7.0,90,0.00, +TSGR FG,SKC,-99.99,VWS V12.07,2013-02-07 12:40:00,
2013-02-07 06:50:00,32.5,29.9,30.01,South,174,4.0,7.0,90,0.00, +TSGR FG,SKC,-99.99,VWS V12.07,2013-02-07 12:50:00,
2013-02-07 06:55:00,32.5,29.9,30.00,SE,133,6.0,6.0,90,0.00, +TSGR FG,SKC,-99.99,VWS V12.07,2013-02-07 12:55:00,
2013-02-07 07:00:00,32.5,29.9,30.00,SSE,161,4.0,7.0,90,0.00, +TSGR FG,SKC,-99.99,VWS V12.07,2013-02-07 13:00:00,
2013-02-07 07:05:00,32.5,29.9,30.00,SSE,161,7.0,10.0,90,0.00, +TSGR FG,SKC,-99.99,VWS V12.07,2013-02-07 13:05:00,
2013-02-07 07:10:00,32.5,30.2,30.00,SE,132,6.0,10.0,91,0.00, +TSGR FG,SKC,-99.99,VWS V12.07,2013-02-07 13:10:00,
2013-02-07 07:20:00,32.5,30.2,30.00,South,175,4.0,7.0,91,0.00, +TSGR FG,SKC,-99.99,VWS V12.07,2013-02-07 13:20:00,
2013-02-07 07:25:00,32.5,30.2,30.00,SE,142,5.0,5.0,91,0.00, +TSGR FG,SKC,-99.99,VWS V12.07,2013-02-07 13:25:00,
2013-02-07 07:30:00,32.5,30.2,30.00,SE,146,2.0,7.0,91,0.00, +TSGR FG,SKC,-99.99,VWS V12.07,2013-02-07 13:30:00,
2013-02-07 07:35:00,32.4,30.3,30.00,SSE,166,6.0,6.0,92,0.00, +TSGR FG,SKC,-99.99,VWS V12.07,2013-02-07 13:35:00,
2013-02-07 07:45:00,32.5,30.4,29.99,SE,146,2.0,7.0,92,0.00, +TSGR FG,SKC,-99.99,VWS V12.07,2013-02-07 13:45:00,
2013-02-07 07:50:00,32.5,30.4,29.99,SSE,152,0.0,7.0,92,0.00, +TSGR FG,SKC,-99.99,VWS V12.07,2013-02-07 13:50:00,
2013-02-07 07:55:00,32.5,30.4,29.99,SSE,150,2.0,7.0,92,0.00, +TSGR FG,SKC,-99.99,VWS V12.07,2013-02-07 13:55:00,
2013-02-07 08:00:00,32.5,30.4,29.99,SSE,157,1.0,7.0,92,0.00, +TSGR FG,SKC,-99.99,VWS V12.07,2013-02-07 14:00:00,
2013-02-07 08:05:00,32.6,30.5,29.99,SSE,163,1.0,6.0,92,0.00, +TSGR FG,SKC,-99.99,VWS V12.07,2013-02-07 14:05:00,
2013-02-07 08:10:00,32.6,30.8,29.99,SE,134,4.0,6.0,93,0.00, +TSGR FG,SKC,-99.99,VWS V12.07,2013-02-07 14:10:00,
2013-02-07 08:15:00,32.7,30.9,29.99,SSE,157,2.0,5.0,93,0.00, +TSGR FG,SKC,-99.99,VWS V12.07,2013-02-07 14:15:00,
2013-02-07 08:20:00,32.8,31.0,29.99,SE,141,5.0,6.0,93,0.00, +TSGR FG,SKC,-99.99,VWS V12.07,2013-02-07 14:20:00,
2013-02-07 08:25:00,32.8,31.0,29.99,SSE,150,4.0,5.0,93,0.00, +TSGR FG,SKC,-99.99,VWS V12.07,2013-02-07 14:25:00,
2013-02-07 08:30:00,32.9,31.1,29.99,SSE,164,2.0,5.0,93,0.00, +TSGR FG,SKC,-99.99,VWS V12.07,2013-02-07 14:30:00,
2013-02-07 08:35:00,32.9,31.1,29.99,SSE,163,2.0,4.0,93,0.00, +TSGR FG,SKC,-99.99,VWS V12.07,2013-02-07 14:35:00,
2013-02-07 08:40:00,33.0,31.2,29.99,SSE,157,4.0,4.0,93,0.00, +TSGR FG,SKC,-99.99,VWS V12.07,2013-02-07 14:40:00,
2013-02-07 08:45:00,33.0,31.2,29.99,SSE,168,0.0,6.0,93,0.00, +TSGR FG,SKC,-99.99,VWS V12.07,2013-02-07 14:45:00,
2013-02-07 08:50:00,33.1,31.3,29.99,SSE,167,1.0,6.0,93,0.00, +TSGR FG,SKC,-99.99,VWS V12.07,2013-02-07 14:50:00,
2013-02-07 08:55:00,33.2,31.4,29.99,SSE,163,1.0,5.0,93,0.00, +TSGR FG,SKC,-99.99,VWS V12.07,2013-02-07 14:55:00,
2013-02-07 09:00:00,33.2,31.4,29.99,SSE,147,2.0,5.0,93,0.00, +TSGR FG,SKC,-99.99,VWS V12.07,2013-02-07 15:00:00,
2013-02-07 09:05:00,33.2,31.4,29.98,South,171,4.0,5.0,93,0.00, +TSGR FG,SKC,-99.99,VWS V12.07,2013-02-07 15:05:00,
2013-02-07 09:15:00,33.3,31.5,29.98,SE,124,2.0,4.0,93,0.00, +TSGR FG,SKC,-99.99,VWS V12.07,2013-02-07 15:15:00,
2013-02-07 09:20:00,33.3,31.5,29.98,SSE,162,1.0,4.0,93,0.00, +TSGR FG,SKC,-99.99,VWS V12.07,2013-02-07 15:20:00,
2013-02-07 09:25:00,33.4,31.6,29.98,South,170,2.0,5.0,93,0.00, +TSGR FG,SKC,-99.99,VWS V12.07,2013-02-07 15:25:00,
2013-02-07 09:30:00,33.4,31.9,29.98,SE,146,2.0,5.0,94,0.00, +TSGR FG,SKC,-99.99,VWS V12.07,2013-02-07 15:30:00,
2013-02-07 09:35:00,33.5,32.0,29.98,SSE,147,0.0,4.0,94,0.00, +TSGR FG,SKC,-99.99,VWS V12.07,2013-02-07 15:35:00,
2013-02-07 09:40:00,33.5,32.0,29.98,SSE,147,2.0,4.0,94,0.00, +TSGR FG,SKC,-99.99,VWS V12.07,2013-02-07 15:40:00,
2013-02-07 09:50:00,33.6,32.1,29.97,SSE,147,4.0,5.0,94,0.00, +TSGR FG,SKC,-99.99,VWS V12.07,2013-02-07 15:50:00,
2013-02-07 10:00:00,33.7,32.2,29.97,South,175,2.0,5.0,94,0.00, +TSGR FG,SKC,-99.99,VWS V12.07,2013-02-07 16:00:00,
2013-02-07 10:10:00,33.7,32.2,29.97,SE,144,2.0,5.0,94,0.00, +TSGR FG,SKC,-99.99,VWS V12.07,2013-02-07 16:10:00,
2013-02-07 10:15:00,33.8,32.3,29.97,SE,140,2.0,4.0,94,0.00, +TSGR FG,SKC,-99.99,VWS V12.07,2013-02-07 16:15:00,
2013-02-07 10:20:00,33.8,32.3,29.97,SE,144,1.0,6.0,94,0.00, +TSGR FG,SKC,-99.99,VWS V12.07,2013-02-07 16:20:00,
2013-02-07 10:25:00,33.8,32.3,29.97,SE,136,4.0,5.0,94,0.00, +TSGR FG,SKC,-99.99,VWS V12.07,2013-02-07 16:25:00,
2013-02-07 10:30:00,33.8,32.3,29.97,South,184,3.0,5.0,94,0.00, +TSGR FG,SKC,-99.99,VWS V12.07,2013-02-07 16:30:00,
2013-02-07 10:35:00,33.8,32.3,29.97,SSE,147,4.0,5.0,94,0.00, +TSGR FG,SKC,-99.99,VWS V12.07,2013-02-07 16:35:00,
2013-02-07 10:45:00,33.9,32.4,29.97,SSE,161,1.0,4.0,94,0.00, +TSGR FG,SKC,-99.99,VWS V12.07,2013-02-07 16:45:00,
2013-02-07 10:50:00,34.0,32.5,29.97,SSE,161,1.0,4.0,94,0.00, +TSGR FG,SKC,-99.99,VWS V12.07,2013-02-07 16:50:00,
2013-02-07 10:55:00,34.0,32.5,29.97,SSE,148,2.0,4.0,94,0.00, +TSGR FG,SKC,-99.99,VWS V12.07,2013-02-07 16:55:00,
2013-02-07 11:00:00,34.0,32.5,29.97,SSE,148,1.0,4.0,94,0.00, +TSGR FG,SKC,-99.99,VWS V12.07,2013-02-07 17:00:00,
2013-02-07 11:05:00,34.1,32.6,29.97,SSE,148,0.0,1.0,94,0.00, +TSGR FG,SKC,-99.99,VWS V12.07,2013-02-07 17:05:00,
2013-02-07 11:10:00,34.1,32.6,29.96,SSE,148,1.0,2.0,94,0.00, +TSGR FG,SKC,-99.99,VWS V12.07,2013-02-07 17:10:00,
2013-02-07 11:15:00,34.0,32.5,29.96,SSE,155,2.0,5.0,94,0.00, +TSGR FG,SKC,-99.99,VWS V12.07,2013-02-07 17:15:00,
2013-02-07 11:20:00,33.9,32.4,29.96,SSE,150,5.0,5.0,94,0.00, +TSGR FG,SKC,-99.99,VWS V12.07,2013-02-07 17:20:00,
2013-02-07 11:25:00,33.9,32.4,29.95,SSE,151,2.0,5.0,94,0.01, +TSGR FG,SKC,-99.99,VWS V12.07,2013-02-07 17:25:00,
2013-02-07 11:30:00,33.9,32.4,29.95,SSE,151,0.0,5.0,94,0.01, +TSGR FG,SKC,-99.99,VWS V12.07,2013-02-07 17:30:00,
2013-02-07 11:35:00,33.9,32.4,29.95,SE,137,2.0,4.0,94,0.01, +TSGR FG,SKC,-99.99,VWS V12.07,2013-02-07 17:35:00,
2013-02-07 11:40:00,33.9,32.4,29.94,ESE,105,2.0,4.0,94,0.01, +TSGR FG,SKC,-99.99,VWS V12.07,2013-02-07 17:40:00,
2013-02-07 11:45:00,33.8,32.3,29.94,East,100,2.0,4.0,94,0.01, +TSGR FG,SKC,-99.99,VWS V12.07,2013-02-07 17:45:00,
2013-02-07 11:50:00,33.8,32.3,29.94,ESE,105,2.0,4.0,94,0.01, +TSGR FG,SKC,-99.99,VWS V12.07,2013-02-07 17:50:00,
2013-02-07 11:55:00,33.8,32.3,29.93,ESE,105,5.0,5.0,94,0.01, +TSGR FG,SKC,-99.99,VWS V12.07,2013-02-07 17:55:00,
2013-02-07 12:00:00,33.8,32.3,29.93,ESE,109,2.0,5.0,94,0.01, +TSGR FG,SKC,-99.99,VWS V12.07,2013-02-07 18:00:00,
2013-02-07 12:05:00,33.7,32.2,29.93,ESE,110,2.0,4.0,94,0.01, +TSGR FG,SKC,-99.99,VWS V12.07,2013-02-07 18:05:00,
2013-02-07 12:10:00,33.7,32.2,29.93,ESE,106,2.0,5.0,94,0.01, +TSGR FG,SKC,-99.99,VWS V12.07,2013-02-07 18:10:00,
2013-02-07 12:20:00,33.7,32.4,29.93,ESE,116,4.0,5.0,95,0.01, +TSGR FG,SKC,-99.99,VWS V12.07,2013-02-07 18:20:00,
2013-02-07 12:25:00,33.6,32.3,29.93,ESE,109,4.0,5.0,95,0.01, +TSGR FG,SKC,-99.99,VWS V12.07,2013-02-07 18:25:00,
2013-02-07 12:30:00,33.6,32.1,29.93,ESE,105,0.0,5.0,94,0.01, +TSGR FG,SKC,-99.99,VWS V12.07,2013-02-07 18:30:00,
2013-02-07 12:40:00,33.6,32.3,29.92,ESE,102,2.0,5.0,95,0.00, +TSGR FG,SKC,-99.99,VWS V12.07,2013-02-07 18:40:00,
2013-02-07 12:45:00,33.6,32.3,29.92,ESE,102,1.0,4.0,95,0.00, +TSGR FG,SKC,-99.99,VWS V12.07,2013-02-07 18:45:00,
2013-02-07 12:50:00,33.6,32.3,29.92,ESE,102,0.0,4.0,95,0.00, +TSGR FG,SKC,-99.99,VWS V12.07,2013-02-07 18:50:00,
2013-02-07 12:55:00,33.5,32.2,29.92,ESE,102,2.0,2.0,95,0.00, +TSGR FG,SKC,-99.99,VWS V12.07,2013-02-07 18:55:00,
2013-02-07 13:05:00,33.5,32.2,29.91,ESE,102,0.0,4.0,95,0.00, +TSGR FG,SKC,-99.99,VWS V12.07,2013-02-07 19:05:00,
2013-02-07 13:10:00,33.5,32.2,29.91,ESE,102,2.0,4.0,95,0.00, +TSGR FG,SKC,-99.99,VWS V12.07,2013-02-07 19:10:00,
2013-02-07 13:15:00,33.5,32.2,29.91,ESE,102,1.0,1.0,95,0.00, +TSGR FG,SKC,-99.99,VWS V12.07,2013-02-07 19:15:00,
2013-02-07 13:20:00,33.5,32.2,29.90,ESE,102,1.0,4.0,95,0.00, +TSGR FG,SKC,-99.99,VWS V12.07,2013-02-07 19:20:00,
2013-02-07 13:25:00,33.5,32.2,29.90,ESE,102,2.0,2.0,95,0.00, +TSGR FG,SKC,-99.99,VWS V12.07,2013-02-07 19:25:00,
2013-02-07 13:30:00,33.5,32.2,29.90,ESE,102,0.0,2.0,95,0.00, +TSGR FG,SKC,-99.99,VWS V12.07,2013-02-07 19:30:00,
2013-02-07 13:35:00,33.5,32.2,29.90,ESE,102,0.0,2.0,95,0.00, +TSGR FG,SKC,-99.99,VWS V12.07,2013-02-07 19:35:00,
2013-02-07 13:40:00,33.5,32.2,29.89,ESE,102,0.0,2.0,95,0.00, +TSGR FG,SKC,-99.99,VWS V12.07,2013-02-07 19:40:00,
2013-02-07 13:45:00,33.5,32.2,29.89,ESE,102,1.0,2.0,95,0.00, +TSGR FG,SKC,-99.99,VWS V12.07,2013-02-07 19:45:00,
2013-02-07 13:50:00,33.5,32.2,29.89,ESE,102,1.0,2.0,95,0.00, +TSGR FG,SKC,-99.99,VWS V12.07,2013-02-07 19:50:00,
2013-02-07 13:55:00,33.5,32.2,29.89,ESE,102,1.0,4.0,95,0.00, +TSGR FG,SKC,-99.99,VWS V12.07,2013-02-07 19:55:00,
2013-02-07 14:00:00,33.5,32.2,29.88,ESE,102,1.0,4.0,95,0.00, +TSGR FG,SKC,-99.99,VWS V12.07,2013-02-07 20:00:00,
2013-02-07 14:05:00,33.5,32.2,29.88,ESE,102,0.0,4.0,95,0.00, +TSGR FG,SKC,-99.99,VWS V12.07,2013-02-07 20:05:00,
2013-02-07 14:10:00,33.5,32.2,29.88,ESE,102,1.0,4.0,95,0.00, +TSGR FG,SKC,-99.99,VWS V12.07,2013-02-07 20:10:00,
2013-02-07 14:20:00,33.6,32.3,29.88,ESE,102,0.0,2.0,95,0.00, +TSGR FG,SKC,-99.99,VWS V12.07,2013-02-07 20:20:00,
2013-02-07 14:25:00,33.6,32.3,29.87,ESE,102,0.0,2.0,95,0.00, +TSGR FG,SKC,-99.99,VWS V12.07,2013-02-07 20:25:00,
2013-02-07 14:30:00,33.7,32.4,29.87,ESE,102,1.0,2.0,95,0.00, +TSGR FG,SKC,-99.99,VWS V12.07,2013-02-07 20:30:00,
2013-02-07 14:40:00,33.7,32.4,29.87,ESE,102,0.0,0.0,95,0.00, +TSGR FG,SKC,-99.99,VWS V12.07,2013-02-07 20:40:00,
2013-02-07 14:45:00,33.7,32.4,29.87,ESE,102,0.0,0.0,95,0.00, +TSGR FG,SKC,-99.99,VWS V12.07,2013-02-07 20:45:00,
2013-02-07 14:50:00,33.6,32.3,29.86,ESE,102,0.0,1.0,95,0.00, +TSGR FG,SKC,-99.99,VWS V12.07,2013-02-07 20:50:00,
2013-02-07 15:00:00,33.6,32.3,29.86,ESE,102,0.0,1.0,95,0.00, +TSGR FG,SKC,-99.99,VWS V12.07,2013-02-07 21:00:00,
2013-02-07 15:05:00,33.6,32.3,29.86,ESE,102,1.0,1.0,95,0.00, +TSGR FG,SKC,-99.99,VWS V12.07,2013-02-07 21:05:00,
2013-02-07 15:10:00,33.6,32.6,29.86,ESE,102,0.0,1.0,96,0.00, +TSGR FG,SKC,-99.99,VWS V12.07,2013-02-07 21:10:00,
2013-02-07 15:15:00,33.6,32.6,29.86,ESE,102,0.0,1.0,96,0.00, +TSGR FG,SKC,-99.99,VWS V12.07,2013-02-07 21:15:00,
2013-02-07 15:20:00,33.6,32.6,29.85,ESE,102,0.0,1.0,96,0.00, +TSGR FG,SKC,-99.99,VWS V12.07,2013-02-07 21:20:00,
2013-02-07 15:25:00,33.6,32.3,29.85,ESE,102,1.0,2.0,95,0.00, +TSGR FG,SKC,-99.99,VWS V12.07,2013-02-07 21:25:00,
2013-02-07 15:30:00,33.5,32.2,29.85,ESE,102,1.0,4.0,95,0.00, +TSGR FG,SKC,-99.99,VWS V12.07,2013-02-07 21:30:00,
2013-02-07 15:35:00,33.5,32.2,29.85,ESE,102,2.0,2.0,95,0.00, +TSGR FG,SKC,-99.99,VWS V12.07,2013-02-07 21:35:00,
2013-02-07 15:40:00,33.5,32.2,29.85,ESE,102,0.0,2.0,95,0.00, +TSGR FG,SKC,-99.99,VWS V12.07,2013-02-07 21:40:00,
2013-02-07 15:45:00,33.5,32.2,29.85,ENE,61,1.0,4.0,95,0.00, +TSGR FG,SKC,-99.99,VWS V12.07,2013-02-07 21:45:00,
2013-02-07 15:50:00,33.4,32.1,29.85,ENE,61,2.0,4.0,95,0.00, +TSGR FG,SKC,-99.99,VWS V12.07,2013-02-07 21:50:00,
2013-02-07 15:55:00,33.4,32.1,29.85,ENE,61,2.0,4.0,95,0.00, +TSGR FG,SKC,-99.99,VWS V12.07,2013-02-07 21:55:00,
2013-02-07 16:00:00,33.4,32.1,29.85,ENE,61,0.0,4.0,95,0.00, +TSGR FG,SKC,-99.99,VWS V12.07,2013-02-07 22:00:00,
2013-02-07 16:05:00,33.4,32.1,29.85,ENE,61,2.0,3.0,95,0.00, +TSGR FG,SKC,-99.99,VWS V12.07,2013-02-07 22:05:00,
2013-02-07 16:10:00,33.4,32.4,29.85,ENE,61,2.0,3.0,96,0.00, +TSGR FG,SKC,-99.99,VWS V12.07,2013-02-07 22:10:00,
2013-02-07 16:15:00,33.4,32.4,29.85,ENE,61,2.0,4.0,96,0.00, +TSGR FG,SKC,-99.99,VWS V12.07,2013-02-07 22:15:00,
2013-02-07 16:20:00,33.3,32.3,29.85,ENE,61,0.0,4.0,96,0.00, +TSGR FG,SKC,-99.99,VWS V12.07,2013-02-07 22:20:00,
2013-02-07 16:25:00,33.3,32.3,29.85,NE,43,1.0,4.0,96,0.00, +TSGR FG,SKC,-99.99,VWS V12.07,2013-02-07 22:25:00,
2013-02-07 16:30:00,33.3,32.3,29.85,NE,42,2.0,4.0,96,0.00, +TSGR FG,SKC,-99.99,VWS V12.07,2013-02-07 22:30:00,
2013-02-07 16:35:00,33.2,32.2,29.85,NE,41,3.0,4.0,96,0.00, +TSGR FG,SKC,-99.99,VWS V12.07,2013-02-07 22:35:00,
2013-02-07 16:40:00,33.2,32.2,29.85,NE,40,4.0,4.0,96,0.00, +TSGR FG,SKC,-99.99,VWS V12.07,2013-02-07 22:40:00,
2013-02-07 16:45:00,33.2,32.2,29.85,NE,36,2.0,4.0,96,0.00, +TSGR FG,SKC,-99.99,VWS V12.07,2013-02-07 22:45:00,
2013-02-07 16:50:00,33.2,32.2,29.85,NE,37,1.0,4.0,96,0.00, +TSGR FG,SKC,-99.99,VWS V12.07,2013-02-07 22:50:00,
2013-02-07 16:55:00,33.2,32.2,29.85,NE,36,0.0,2.0,96,0.00, +TSGR FG,SKC,-99.99,VWS V12.07,2013-02-07 22:55:00,
2013-02-07 17:00:00,33.2,32.2,29.85,NE,37,0.0,3.0,96,0.00, +TSGR FG,SKC,-99.99,VWS V12.07,2013-02-07 23:00:00,
2013-02-07 17:05:00,33.2,32.2,29.85,NE,37,1.0,3.0,96,0.00, +TSGR FG,SKC,-99.99,VWS V12.07,2013-02-07 23:05:00,
2013-02-07 17:10:00,33.2,32.2,29.85,NE,36,1.0,3.0,96,0.00, +TSGR FG,SKC,-99.99,VWS V12.07,2013-02-07 23:10:00,
2013-02-07 17:15:00,33.2,32.2,29.85,NE,36,0.0,2.0,96,0.00, +TSGR FG,SKC,-99.99,VWS V12.07,2013-02-07 23:15:00,
2013-02-07 17:20:00,33.2,32.2,29.85,NE,36,2.0,3.0,96,0.00, +TSGR FG,SKC,-99.99,VWS V12.07,2013-02-07 23:20:00,
2013-02-07 17:25:00,33.2,32.2,29.85,NNE,24,2.0,5.0,96,0.00, +TSGR FG,SKC,-99.99,VWS V12.07,2013-02-07 23:25:00,
2013-02-07 17:35:00,33.2,32.2,29.86,NNE,26,3.0,3.0,96,0.00, +TSGR FG,SKC,-99.99,VWS V12.07,2013-02-07 23:35:00,
2013-02-07 17:40:00,33.2,32.2,29.86,NNE,26,2.0,3.0,96,0.00, +TSGR FG,SKC,-99.99,VWS V12.07,2013-02-07 23:40:00,
2013-02-07 17:45:00,33.2,32.2,29.86,NNE,26,0.0,3.0,96,0.00, +TSGR FG,SKC,-99.99,VWS V12.07,2013-02-07 23:45:00,
2013-02-07 17:55:00,33.2,32.2,29.86,NNE,26,1.0,2.0,96,0.00, +TSGR FG,SKC,-99.99,VWS V12.07,2013-02-07 23:55:00,
2013-02-07 18:00:00,33.2,32.2,29.86,NNE,30,0.0,2.0,96,0.00, +TSGR FG,SKC,-99.99,VWS V12.07,2013-02-08 00:00:00,
2013-02-07 18:05:00,33.2,32.2,29.87,NNE,30,0.0,0.0,96,0.00, +TSGR FG,SKC,-99.99,VWS V12.07,2013-02-08 00:05:00,
2013-02-07 18:10:00,33.3,32.3,29.87,NNE,30,0.0,0.0,96,0.00, +TSGR FG,SKC,-99.99,VWS V12.07,2013-02-08 00:10:00,
2013-02-07 18:15:00,33.3,32.3,29.87,NNE,33,0.0,0.0,96,0.00, +TSGR FG,SKC,-99.99,VWS V12.07,2013-02-08 00:15:00,
2013-02-07 18:20:00,33.3,32.3,29.87,NE,36,0.0,0.0,96,0.00, +TSGR FG,SKC,-99.99,VWS V12.07,2013-02-08 00:20:00,
2013-02-07 18:25:00,33.3,32.3,29.87,NE,37,0.0,0.0,96,0.00, +TSGR FG,SKC,-99.99,VWS V12.07,2013-02-08 00:25:00,
2013-02-07 18:30:00,33.3,32.3,29.88,NNE,20,0.0,0.0,96,0.00, +TSGR FG,SKC,-99.99,VWS V12.07,2013-02-08 00:30:00,
2013-02-07 18:35:00,33.3,32.3,29.88,NNE,32,0.0,0.0,96,0.00, +TSGR FG,SKC,-99.99,VWS V12.07,2013-02-08 00:35:00,
2013-02-07 18:45:00,33.3,32.3,29.88,NE,46,0.0,0.0,96,0.00, +TSGR FG,SKC,-99.99,VWS V12.07,2013-02-08 00:45:00,
2013-02-07 18:50:00,33.3,32.3,29.88,NNE,24,0.0,0.0,96,0.00, +TSGR FG,SKC,-99.99,VWS V12.07,2013-02-08 00:50:00,
2013-02-07 18:55:00,33.2,32.2,29.88,NNE,25,0.0,0.0,96,0.00, +TSGR FG,SKC,-99.99,VWS V12.07,2013-02-08 00:55:00,
2013-02-07 19:00:00,33.2,32.2,29.88,NNE,24,0.0,0.0,96,0.00, +TSGR FG,SKC,-99.99,VWS V12.07,2013-02-08 01:00:00,
2013-02-07 19:05:00,33.2,32.2,29.88,NE,47,0.0,0.0,96,0.00, +TSGR FG,SKC,-99.99,VWS V12.07,2013-02-08 01:05:00,
2013-02-07 19:10:00,33.2,32.2,29.88,NNE,22,0.0,0.0,96,0.00, +TSGR FG,SKC,-99.99,VWS V12.07,2013-02-08 01:10:00,
2013-02-07 19:15:00,33.2,32.2,29.88,NNE,19,0.0,0.0,96,0.00, +TSGR FG,SKC,-99.99,VWS V12.07,2013-02-08 01:15:00,
2013-02-07 19:20:00,33.2,32.2,29.88,NNE,22,0.0,0.0,96,0.00, +TSGR FG,SKC,-99.99,VWS V12.07,2013-02-08 01:20:00,
2013-02-07 19:25:00,33.2,32.2,29.88,NNE,28,0.0,0.0,96,0.00, +TSGR FG,SKC,-99.99,VWS V12.07,2013-02-08 01:25:00,
2013-02-07 19:30:00,33.1,32.1,29.88,NNE,24,0.0,0.0,96,0.00, +TSGR FG,SKC,-99.99,VWS V12.07,2013-02-08 01:30:00,
2013-02-07 19:40:00,33.1,32.1,29.88,NNE,20,0.0,0.0,96,0.00, +TSGR FG,SKC,-99.99,VWS V12.07,2013-02-08 01:40:00,
2013-02-07 19:45:00,33.1,32.1,29.88,North,355,0.0,0.0,96,0.00, +TSGR FG,SKC,-99.99,VWS V12.07,2013-02-08 01:45:00,
2013-02-07 19:50:00,33.1,32.1,29.89,NNE,26,0.0,0.0,96,0.00, +TSGR FG,SKC,-99.99,VWS V12.07,2013-02-08 01:50:00,
2013-02-07 19:55:00,33.1,32.1,29.89,NNE,22,0.0,0.0,96,0.00, +TSGR FG,SKC,-99.99,VWS V12.07,2013-02-08 01:55:00,
2013-02-07 20:00:00,33.0,32.0,29.89,NNE,26,0.0,0.0,96,0.00, +TSGR FG,SKC,-99.99,VWS V12.07,2013-02-08 02:00:00,
2013-02-07 20:05:00,33.0,32.0,29.89,North,355,0.0,0.0,96,0.00, +TSGR FG,SKC,-99.99,VWS V12.07,2013-02-08 02:05:00,
2013-02-07 20:15:00,33.0,32.0,29.89,NNE,27,0.0,0.0,96,0.00, +TSGR FG,SKC,-99.99,VWS V12.07,2013-02-08 02:15:00,
2013-02-07 20:20:00,33.0,32.0,29.89,North,11,0.0,0.0,96,0.00, +TSGR FG,SKC,-99.99,VWS V12.07,2013-02-08 02:20:00,
2013-02-07 20:25:00,32.9,31.9,29.89,North,11,0.0,0.0,96,0.00, +TSGR FG,SKC,-99.99,VWS V12.07,2013-02-08 02:25:00,
2013-02-07 20:30:00,32.9,31.9,29.90,North,355,0.0,0.0,96,0.00, +TSGR FG,SKC,-99.99,VWS V12.07,2013-02-08 02:30:00,
2013-02-07 20:35:00,32.9,31.9,29.89,North,9,0.0,0.0,96,0.00, +TSGR FG,SKC,-99.99,VWS V12.07,2013-02-08 02:35:00,
2013-02-07 20:40:00,32.8,31.8,29.90,North,351,0.0,0.0,96,0.00, +TSGR FG,SKC,-99.99,VWS V12.07,2013-02-08 02:40:00,
2013-02-07 20:45:00,32.8,31.8,29.90,NNE,17,0.0,0.0,96,0.00, +TSGR FG,SKC,-99.99,VWS V12.07,2013-02-08 02:45:00,
2013-02-07 20:50:00,32.8,31.8,29.90,NNE,17,0.0,0.0,96,0.00, +TSGR FG,SKC,-99.99,VWS V12.07,2013-02-08 02:50:00,
2013-02-07 20:55:00,32.8,31.8,29.90,North,355,0.0,0.0,96,0.00, +TSGR FG,SKC,-99.99,VWS V12.07,2013-02-08 02:55:00,
2013-02-07 21:00:00,32.7,31.7,29.90,NE,37,0.0,0.0,96,0.00, +TSGR FG,SKC,-99.99,VWS V12.07,2013-02-08 03:00:00,
2013-02-07 21:05:00,32.6,31.6,29.90,North,11,0.0,0.0,96,0.00, +TSGR FG,SKC,-99.99,VWS V12.07,2013-02-08 03:05:00,
2013-02-07 21:10:00,32.6,31.6,29.90,North,5,0.0,0.0,96,0.00, +TSGR FG,SKC,-99.99,VWS V12.07,2013-02-08 03:10:00,
2013-02-07 21:15:00,32.5,31.5,29.90,North,5,0.0,0.0,96,0.00, +TSGR FG,SKC,-99.99,VWS V12.07,2013-02-08 03:15:00,
2013-02-07 21:20:00,32.5,31.5,29.90,North,9,0.0,0.0,96,0.00, +TSGR FG,SKC,-99.99,VWS V12.07,2013-02-08 03:20:00,
2013-02-07 21:30:00,32.4,31.4,29.91,NE,36,0.0,0.0,96,0.00, +TSGR FG,SKC,-99.99,VWS V12.07,2013-02-08 03:30:00,
2013-02-07 21:35:00,32.4,31.4,29.91,North,5,0.0,0.0,96,0.00, +TSGR FG,SKC,-99.99,VWS V12.07,2013-02-08 03:35:00,
2013-02-07 21:40:00,32.3,31.3,29.91,North,11,0.0,0.0,96,0.00, +TSGR FG,SKC,-99.99,VWS V12.07,2013-02-08 03:40:00,
2013-02-07 21:45:00,31.7,30.7,29.92,North,5,0.0,0.0,96,0.00, +TSGR FG,SKC,-99.99,VWS V12.07,2013-02-08 03:45:00,
2013-02-07 21:55:00,30.3,29.3,29.92,North,5,0.0,0.0,96,0.00, +TSGR FG,SKC,-99.99,VWS V12.07,2013-02-08 03:55:00,
2013-02-07 22:00:00,30.1,29.1,29.92,North,355,0.0,0.0,96,0.00, +TSGR FG,SKC,-99.99,VWS V12.07,2013-02-08 04:00:00,
2013-02-07 22:10:00,29.2,28.2,29.93,NNE,25,0.0,0.0,96,0.00, +TSGR FG,SKC,-99.99,VWS V12.07,2013-02-08 04:10:00,
2013-02-07 22:15:00,28.7,27.5,29.93,NNE,22,0.0,0.0,95,0.00, +TSGR FG,SKC,-99.99,VWS V12.07,2013-02-08 04:15:00,
2013-02-07 22:25:00,28.4,27.1,29.93,North,11,0.0,0.0,95,0.00, +TSGR FG,SKC,-99.99,VWS V12.07,2013-02-08 04:25:00,
2013-02-07 22:35:00,27.4,26.2,29.93,North,9,0.0,0.0,95,0.00, +TSGR FG,SKC,-99.99,VWS V12.07,2013-02-08 04:35:00,
2013-02-07 22:40:00,27.1,25.9,29.94,North,355,0.0,0.0,95,0.00, +TSGR FG,SKC,-99.99,VWS V12.07,2013-02-08 04:40:00,
2013-02-07 22:50:00,26.7,25.5,29.94,North,5,0.0,0.0,95,0.00, +TSGR FG,SKC,-99.99,VWS V12.07,2013-02-08 04:50:00,
2013-02-07 22:55:00,26.4,25.2,29.94,North,5,0.0,0.0,95,0.00, +TSGR FG,SKC,-99.99,VWS V12.07,2013-02-08 04:55:00,
2013-02-07 23:00:00,26.2,25.0,29.94,NNW,333,0.0,0.0,95,0.00, +TSGR FG,SKC,-99.99,VWS V12.07,2013-02-08 05:00:00,
2013-02-07 23:05:00,26.1,24.9,29.94,North,350,0.0,0.0,95,0.00, +TSGR FG,SKC,-99.99,VWS V12.07,2013-02-08 05:05:00,
2013-02-07 23:10:00,26.1,24.9,29.95,NNW,346,0.0,0.0,95,0.00, +TSGR FG,SKC,-99.99,VWS V12.07,2013-02-08 05:10:00,
2013-02-07 23:15:00,25.8,24.6,29.95,WNW,286,0.0,0.0,95,0.00, +TSGR FG,SKC,-99.99,VWS V12.07,2013-02-08 05:15:00,
2013-02-07 23:20:00,25.6,24.4,29.95,North,360,0.0,0.0,95,0.00, +TSGR FG,SKC,-99.99,VWS V12.07,2013-02-08 05:20:00,
2013-02-07 23:25:00,25.2,24.0,29.95,NNE,23,0.0,0.0,95,0.00, +TSGR FG,SKC,-99.99,VWS V12.07,2013-02-08 05:25:00,
2013-02-07 23:30:00,24.9,23.7,29.95,NNW,342,0.0,0.0,95,0.00, +TSGR FG,SKC,-99.99,VWS V12.07,2013-02-08 05:30:00,
2013-02-07 23:35:00,24.7,23.5,29.95,North,355,0.0,0.0,95,0.00, +TSGR FG,SKC,-99.99,VWS V12.07,2013-02-08 05:35:00,
2013-02-07 23:40:00,24.5,23.3,29.95,North,360,0.0,0.0,95,0.00, +TSGR FG,SKC,-99.99,VWS V12.07,2013-02-08 05:40:00,
2013-02-07 23:45:00,24.4,23.2,29.96,North,350,0.0,0.0,95,0.00, +TSGR FG,SKC,-99.99,VWS V12.07,2013-02-08 05:45:00,
2013-02-07 23:50:00,24.2,23.0,29.96,North,355,0.0,0.0,95,0.00, +TSGR FG,SKC,-99.99,VWS V12.07,2013-02-08 05:50:00,
2013-02-07 23:55:00,24.2,23.0,29.96,NNW,335,0.0,0.0,95,0.00, +TSGR FG,SKC,-99.99,VWS V12.07,2013-02-08 05:55:00,